Location: Haliburton Scout Reserve
(45.0900°N, 78.3200°W)
Time: 19:04:30
(UTC-05:00)

BlueWalker 3 - Visible Passes

Search period start: 30 November 2022 00:00
Search period end: 10 December 2022 00:00
Orbit: 500 x 519 km, 53.2° (Epoch: 30 November)

Date Brightness Start Highest point End Pass type
(mag) Time Alt. Az. Time Alt. Az. Time Alt. Az.
30 Nov 3.4 17:56:41 10° WNW 18:00:03 27° N 18:01:46 20° NNE visible
30 Nov 4.9 19:36:11 10° NW 19:36:35 12° NW 19:36:35 12° NW visible
01 Dec 3.4 17:38:20 10° WNW 17:41:42 26° N 17:44:06 15° NE visible
01 Dec 4.5 19:17:49 10° NW 19:18:56 16° NW 19:18:56 16° NW visible
02 Dec 3.4 17:20:01 10° WNW 17:23:21 26° N 17:26:27 11° NE visible
02 Dec 4.0 18:59:26 10° NW 19:01:16 21° NNW 19:01:16 21° NNW visible
03 Dec 3.4 17:01:40 10° WNW 17:05:00 26° N 17:08:19 10° NE visible
03 Dec 3.5 18:41:04 10° NW 18:43:38 26° NNW 18:43:38 26° NNW visible
04 Dec 3.1 18:22:40 10° NW 18:26:02 29° N 18:26:02 29° N visible
05 Dec 3.0 18:04:17 10° NW 18:07:47 30° NNE 18:08:29 28° NE visible
05 Dec 5.0 19:42:53 10° WNW 19:43:19 13° WNW 19:43:19 13° WNW visible
06 Dec 2.9 17:45:53 10° NW 17:49:24 31° NNE 17:51:01 22° ENE visible
06 Dec 4.3 19:24:29 10° WNW 19:25:51 21° WNW 19:25:51 21° WNW visible
07 Dec 2.9 17:27:28 10° NW 17:31:00 31° NNE 17:33:38 15° ENE visible
07 Dec 3.4 19:06:05 10° WNW 19:08:28 35° WNW 19:08:28 35° WNW visible
08 Dec 2.8 17:09:03 10° NW 17:12:37 32° NNE 17:16:10 10° E visible
08 Dec 2.2 18:47:39 10° WNW 18:51:15 67° WSW 18:51:15 67° WSW visible
09 Dec 2.2 18:29:15 10° WNW 18:33:08 67° SW 18:34:13 43° SSE visible
